User: anonymous   Login
Location: Unspecified
(0.0000°N, 0.0000°E)
Time: 11:33:50
(UTC+00:00)
Language:

DOVE 4 - Orbit

View from above orbital plane
View from above orbital plane
View from above satellite
View from above satellite

Ground track
Ground track

The orbit data is extracted from the following two-line orbital elements,

1 39430U 13066Q   17265.22208152  .00000223  00000-0  48899-4 0  9997
2 39430  97.6712 256.8913 0153341  96.5283 265.3401 14.58920143204089
Epoch (UTC): 22 September 2017 05:19:47
Eccentricity: 0.0153341
inclination: 97.6712°
perigee height: 588 km
apogee height: 805 km
right ascension of ascending node: 256.8913°
argument of perigee: 96.5283°
revolutions per day: 14.58920143
mean anomaly at epoch: 265.3401°
orbit number at epoch: 20408

The dashed part of the orbit path shows where the satellite is in the earth's shadow,  

DLR